Waarnemingen

Advertentie
Mijn weer
Goteborg/Landvetter, Zweden (2526): temperatuur & dauwpunt: 18.08.2019 00:00:00 - 24.08.2019 00:00:00 (CEST)Goteborg/Landvetter, Zweden (2526): windsnelheid: 18.08.2019 00:00:00 - 24.08.2019 00:00:00 (CEST)Goteborg/Landvetter, Zweden (2526): windrichting: 18.08.2019 00:00:00 - 24.08.2019 00:00:00 (CEST)Goteborg/Landvetter, Zweden (2526): luchtdruk: 18.08.2019 00:00:00 - 24.08.2019 00:00:00 (CEST)Goteborg/Landvetter, Zweden (2526): zicht: 18.08.2019 00:00:00 - 24.08.2019 00:00:00 (CEST)
Datum & Tijd tt [°C] td [°C] ff [km/u] ff [kn] dd ppp [hPa] vv [km]
24.08.2019 00:00:00 14,2 13,5 11 6 ZW 1024,1 9
23.08.2019 23:00:00 14,2 13,4 11 6 ZW 1023,9 9
23.08.2019 22:00:00 14,8 13,3 11 6 WZW 1023,7 17
23.08.2019 21:00:00 15,4 13,6 14 8 WZW 1023,5 21
23.08.2019 20:00:00 16,1 13,8 18 10 WZW 1023,0 24
23.08.2019 19:00:00 17,0 13,9 18 10 WZW 1022,7 30
23.08.2019 18:00:00 17,9 14,0 22 12 WZW 1022,7 23
23.08.2019 17:00:00 17,7 14,0 22 12 W 1022,5 40
23.08.2019 16:00:00 17,3 14,2 22 12 WZW 1022,2 30
23.08.2019 15:00:00 16,8 14,6 22 12 WZW 1021,8 35
23.08.2019 14:00:00 16,5 15,0 25 14 ZW 1021,4 19
23.08.2019 13:00:00 16,5 15,0 25 14 ZW 1021,0 17
23.08.2019 12:00:00 15,9 14,9 29 16 ZW 1020,9 11
23.08.2019 11:00:00 15,5 14,5 29 16 ZW 1020,8 15
23.08.2019 10:00:00 15,2 14,4 25 14 ZZW 1020,6 6
23.08.2019 09:00:00 15,1 14,3 25 14 ZW 1020,5 6
23.08.2019 08:00:00 14,9 13,9 29 16 ZZW 1020,2 13
23.08.2019 07:00:00 14,6 13,8 29 16 ZZW 1020,0 6
23.08.2019 06:00:00 14,4 13,4 22 12 Z 1020,2 7
23.08.2019 05:00:00 13,7 12,8 18 10 Z 1020,5 13
23.08.2019 04:00:00 13,3 12,0 14 8 Z 1021,0 30
23.08.2019 03:00:00 13,0 11,7 14 8 Z 1021,6 30
23.08.2019 02:00:00 12,5 11,4 14 8 Z 1021,9 23
23.08.2019 01:00:00 11,2 10,4 14 8 Z 1022,1 21
23.08.2019 00:00:00 10,8 9,7 11 6 ZZW 1022,3 20
22.08.2019 23:00:00 11,3 9,7 14 8 ZZW 1022,4 30
22.08.2019 22:00:00 13,0 11,1 14 8 ZW 1022,1 35
22.08.2019 21:00:00 13,3 12,4 11 6 ZZW 1022,0 11
22.08.2019 20:00:00 13,6 12,3 14 8 ZW 1022,0 19
22.08.2019 19:00:00 15,3 11,1 25 14 Z 1021,1 35
22.08.2019 18:00:00 16,9 10,0 29 16 ZZW 1021,7 40
22.08.2019 17:00:00 17,5 9,9 25 14 Z 1022,3 40
22.08.2019 16:00:00 17,4 10,8 25 14 Z 1022,7 45
22.08.2019 15:00:00 17,2 11,2 29 16 Z 1023,3 30
22.08.2019 14:00:00 17,0 11,9 32 18 ZZW 1023,8 30
22.08.2019 13:00:00 16,9 11,4 32 18 ZZW 1024,3 35
22.08.2019 12:00:00 17,1 11,8 29 16 ZZW 1024,4 45
22.08.2019 11:00:00 16,5 11,2 32 18 ZZW 1024,8 40
22.08.2019 10:00:00 15,9 10,9 25 14 ZZW 1024,8 40
22.08.2019 09:00:00 14,5 12,4 18 10 Z 1025,0 45
22.08.2019 08:00:00 12,8 11,4 14 8 Z 1025,0 40
22.08.2019 07:00:00 12,0 10,6 14 8 Z 1025,1 50
22.08.2019 06:00:00 11,3 10,2 14 8 Z 1025,3 50
22.08.2019 05:00:00 10,1 9,3 14 8 Z 1025,6 50
22.08.2019 04:00:00 9,7 8,6 11 6 Z 1025,7 50
22.08.2019 03:00:00 9,5 8,4 11 6 ZZW 1025,9 35
22.08.2019 02:00:00 9,6 8,5 11 6 ZZW 1025,9 40
22.08.2019 01:00:00 9,5 8,3 11 6 ZZW 1025,9 35
22.08.2019 00:00:00 9,5 7,9 11 6 ZZW 1025,8 50
21.08.2019 23:00:00 10,6 8,0 11 6 ZW 1025,5 50
21.08.2019 22:00:00 11,1 7,8 11 6 ZW 1025,1 40
21.08.2019 21:00:00 11,9 7,8 11 6 ZW 1024,8 50
21.08.2019 20:00:00 13,0 8,3 11 6 WZW 1024,6 50
21.08.2019 19:00:00 14,3 8,0 11 6 WZW 1024,5 40
21.08.2019 18:00:00 14,5 8,4 18 10 W 1024,5 40
21.08.2019 17:00:00 14,8 8,3 18 10 W 1024,3 45
21.08.2019 16:00:00 15,7 8,2 22 12 W 1023,9 50
21.08.2019 15:00:00 15,6 7,9 22 12 WZW 1023,7 35
21.08.2019 14:00:00 15,6 8,3 29 16 WZW 1023,4 50
21.08.2019 13:00:00 14,1 8,9 22 12 WZW 1023,4 35
21.08.2019 12:00:00 14,6 9,0 22 12 WZW 1022,8 45
21.08.2019 11:00:00 13,9 9,5 14 8 W 1022,7 50
21.08.2019 10:00:00 14,2 9,2 14 8 W 1022,4 50
21.08.2019 09:00:00 12,6 10,7 14 8 WZW 1022,3 50
21.08.2019 08:00:00 12,8 11,4 11 6 ZZW 1021,8 30
21.08.2019 07:00:00 12,1 11,3 11 6 ZZW 1021,4 28
21.08.2019 06:00:00 11,8 10,9 11 6 ZZW 1021,2 18
21.08.2019 05:00:00 9,6 8,8 11 6 Z 1021,1 20
21.08.2019 04:00:00 9,2 8,4 11 6 ZZW 1021,0 30
21.08.2019 03:00:00 9,9 8,7 11 6 ZZW 1020,9 35
21.08.2019 02:00:00 9,8 8,7 11 6 ZZW 1020,8 35
21.08.2019 01:00:00 10,2 8,6 14 8 ZZW 1020,5 45
21.08.2019 00:00:00 11,6 10,0 11 6 ZZW 1020,3 45
20.08.2019 23:00:00 11,3 9,7 7 4 Z 1020,1 50
20.08.2019 22:00:00 11,6 9,8 14 8 Z 1019,9 50
20.08.2019 21:00:00 13,3 10,7 7 4 Z 1019,6 50
20.08.2019 20:00:00 13,8 10,6 11 6 ZW 1019,2 45
20.08.2019 19:00:00 14,7 11,8 14 8 ZW 1018,7 45
20.08.2019 18:00:00 16,3 11,7 22 12 ZZW 1018,2 35
20.08.2019 17:00:00 17,6 9,2 29 16 ZW 1017,7 40
20.08.2019 16:00:00 17,9 10,3 22 12 ZW 1017,4 28
20.08.2019 15:00:00 18,0 10,6 22 12 ZW 1017,2 35
20.08.2019 14:00:00 16,9 10,3 25 14 ZW 1017,2 45
20.08.2019 13:00:00 15,8 10,6 22 12 ZW 1017,2 45
20.08.2019 12:00:00 15,6 11,2 22 12 ZZW 1017,0 35
20.08.2019 11:00:00 15,6 10,4 18 10 ZW 1016,8 30
20.08.2019 10:00:00 16,0 11,6 18 10 ZW 1016,4 16
20.08.2019 09:00:00 15,0 12,0 18 10 ZW 1015,8 27
20.08.2019 08:00:00 14,1 12,3 14 8 ZZW 1015,4 19
20.08.2019 07:00:00 13,2 11,9 14 8 ZZW 1015,3 20
20.08.2019 06:00:00 13,0 11,7 14 8 ZW 1014,8 19
20.08.2019 05:00:00 12,8 11,5 14 8 ZW 1014,4 18
20.08.2019 04:00:00 12,8 11,5 18 10 ZW 1014,0 19
20.08.2019 03:00:00 13,1 11,8 18 10 ZW 1013,5 17
20.08.2019 02:00:00 12,9 11,6 18 10 ZW 1013,2 21
20.08.2019 01:00:00 13,3 12,0 14 8 ZW 1013,0 16
20.08.2019 00:00:00 13,6 12,3 14 8 ZZW 1012,7 4,3
19.08.2019 23:00:00 13,3 11,9 18 10 ZZW 1012,5 30
19.08.2019 22:00:00 13,1 11,8 14 8 ZZW 1012,2 26
19.08.2019 21:00:00 13,5 12,1 11 6 Z 1011,9 35
19.08.2019 20:00:00 14,0 12,6 7 4 WZW 1011,6 40
19.08.2019 19:00:00 14,5 12,2 18 10 ZZW 1011,1 45
19.08.2019 18:00:00 14,6 12,5 18 10 ZW 1010,6 45
19.08.2019 17:00:00 14,0 11,9 18 10 ZZW 1010,2 40
19.08.2019 16:00:00 12,4 10,6 22 12 ZW 1010,3 10
19.08.2019 15:00:00 16,0 10,3 29 16 WZW 1009,3 13
19.08.2019 14:00:00 17,3 12,8 22 12 ZW 1008,3 45
19.08.2019 13:00:00 15,1 13,5 14 8 ZZW 1008,0 30
19.08.2019 12:00:00 12,9 11,3 18 10 ZW 1008,0 30
19.08.2019 11:00:00 16,3 11,2 25 14 ZW 1007,2 35
19.08.2019 10:00:00 16,1 11,7 25 14 ZZW 1007,0 45
19.08.2019 09:00:00 15,7 13,2 22 12 ZZW 1006,7 25
19.08.2019 08:00:00 13,9 12,6 18 10 ZZW 1006,5 22
19.08.2019 07:00:00 12,5 11,7 14 8 ZZW 1005,9 16
19.08.2019 06:00:00 11,3 10,5 14 8 ZZW 1005,9 14
19.08.2019 05:00:00 12,4 11,6 14 8 ZZW 1005,3 13
19.08.2019 04:00:00 12,2 11,4 11 6 ZW 1004,5 13
19.08.2019 03:00:00 13,0 12,1 14 8 ZW 1004,1 16
19.08.2019 02:00:00 12,9 12,0 14 8 ZW 1004,0 27
19.08.2019 01:00:00 13,2 12,4 18 10 ZW 1003,2 50
19.08.2019 00:00:00 13,5 12,9 18 10 ZZW 1002,5 40
18.08.2019 23:00:00 13,0 12,2 14 8 Z 1002,3 23
18.08.2019 22:00:00 12,9 11,6 14 8 Z 1002,3 50
18.08.2019 21:00:00 13,0 11,7 14 8 ZZW 1002,5 13
18.08.2019 20:00:00 13,8 11,8 14 8 Z 1002,6 40
18.08.2019 19:00:00 14,8 13,3 11 6 Z 1002,7 30
18.08.2019 18:00:00 15,1 12,8 18 10 Z 1003,1 20
18.08.2019 17:00:00 16,3 12,8 11 6 ZZO 1003,1 30
18.08.2019 16:00:00 17,8 11,8 14 8 Z 1003,2 40
18.08.2019 15:00:00 18,3 12,1 14 8 ZZW 1003,3 35
18.08.2019 14:00:00 17,3 12,6 14 8 ZZW 1003,8 27
18.08.2019 13:00:00 17,4 12,9 14 8 ZZW 1003,9 30
18.08.2019 12:00:00 16,7 13,4 11 6 Z 1004,1 35
18.08.2019 11:00:00 16,7 13,4 11 6 Z 1004,0 30
18.08.2019 10:00:00 15,2 13,6 11 6 Z 1004,4 21
18.08.2019 09:00:00 14,7 14,1 7 4 Z 1004,3 14
18.08.2019 08:00:00 13,8 13,3 7 4 ZO 1004,3 9
18.08.2019 07:00:00 13,2 12,7 7 4 ZO 1004,4 8
18.08.2019 06:00:00 12,9 12,4 7 4 ZZW 1004,4 11
18.08.2019 05:00:00 11,7 11,2 11 6 Z 1004,9 0,3
18.08.2019 04:00:00 12,7 12,2 11 6 ZZW 1004,7 4,8
18.08.2019 03:00:00 13,3 12,8 11 6 ZW 1004,7 10
18.08.2019 02:00:00 13,1 12,3 7 4 ZZW 1004,7 8
18.08.2019 01:00:00 15,3 14,5 14 8 ZW 1004,4 15
18.08.2019 00:00:00 15,3 14,3 18 10 ZW 1004,0 20

tt = temperatuur
td = dauwpunt
ff = windsnelheid
dd = windrichting
ppp = luchtdruk
vv = zicht

Weerstations in de omgeving